Regional Weather Roundup
Issued by NWS

Home | Current Version | Previous Version | Graphics & Text | Print | Product List | Glossary On
Versions: 1 2 3 4 5 6 7 8 9 10 11 12 13 14 15 16 17 18 19 20 21 22 23 24 25 26 27 28 29 30 31 32 33 34 35 36 37 38 39 40 41 42 43 44 45 46 47 48 49 50
000
ASUS43 KMPX 300510
RWRMN
WEATHER ROUNDUP FOR MINNESOTA
NATIONAL WEATHER SERVICE TWIN CITIES/CHANHASSEN MN
1200 AM CDT FRI SEP 30 2016


NOTE: "FAIR" INDICATES FEW OR NO CLOUDS BELOW 12,000 FEET WITH NO
SIGNIFICANT WEATHER AND/OR OBSTRUCTIONS TO VISIBILITY. N/A MEANS
CURRENT SKY AND/OR WEATHER CONDITIONS ARE NOT AVAILABLE.

MNZ060>063-068>070-300600-
   Twin Cities Metro

CITY           SKY/WX    TMP DP  RH WIND       PRES   REMARKS
TWIN CITIES    CLEAR     57  51  80 E5        30.39S
ST PAUL        CLEAR     55  51  86 VRB3      30.40S
CRYSTAL        CLEAR     49  46  90 CALM      30.39S FOG
BLAINE         CLEAR     52  52 100 CALM      30.40S
LAKEVILLE      CLEAR     48  48 100 CALM      30.39S
EDEN PRAIRIE   CLEAR     55  50  83 NE3       30.38S
LAKEVILLE      CLEAR     48  48 100 CALM      30.39S
SOUTH ST PAUL  CLEAR     57  51  82 CALM      30.39F
LAKE ELMO      FAIR      54  52  94 NE5       30.41S
$$
MNZ001>005-007-008-013>017-022>024-027-028-300600-
   Northwest Minnesota

CITY           SKY/WX    TMP DP  RH WIND       PRES   REMARKS
BEMIDJI        CLOUDY    52  47  82 SE6       30.42F
HALLOCK        CLEAR     52  46  82 SE10      30.37F
ROSEAU         CLEAR     48  43  81 SE6       30.42S HAZE
WARROAD        CLEAR     48  45  87 SE7       30.43S
THIEF RVR FALL CLEAR     47  44  90 SE9       30.41F
CROOKSTON      CLEAR     48  45  87 SE9       30.40S
FOSSTON        CLEAR     46  43  87 SE3       30.42F
DETROIT LAKES  CLEAR     52  46  82 SE6       30.42S
MOORHEAD       CLEAR     48  45  87 E6        30.39S
PARK RAPIDS    CLOUDY    53  46  77 SE7       30.42S
MAHNOMEN       FAIR      48  44  85 SE6       30.41S
$$
MNZ006-009>011-018-025>026-300600-
   North Central Minnesota

CITY           SKY/WX    TMP DP  RH WIND       PRES   REMARKS
BAUDETTE       CLOUDY    53  48  83 SE7       30.44S
FLAG ISLAND    CLEAR     55  48  76 SE13      30.41S
INTL FALLS     MOCLDY    48  45  89 CALM      30.46S
WASKISH        CLOUDY    54  48  82 CALM      30.44S
BIG FORK       CLEAR     48  45  87 CALM      30.45F
GRAND RAPIDS   CLEAR     46  45  96 CALM      30.46F
CRANE LAKE     CLEAR     43  43 100 CALM      30.49S
ORR            PTCLDY    46  45  93 CALM      30.44F
COOK           CLEAR     45  45 100 CALM      30.47S
WALKER         CLOUDY    52  47  82 SE5       30.43S
$$
MNZ012-019>021-037-300600-
   Northeast Minnesota

CITY           SKY/WX    TMP DP  RH WIND       PRES   REMARKS
DULUTH         FOG       51  51 100 E14G22    30.45S VSB 1/2
ELY            CLEAR     43  43 100 CALM      30.47F
HIBBING        CLEAR     41  40  96 CALM      30.46S
EVELETH        CLEAR     45  44  95 CALM      30.47F
DULUTH HARBOR  CLOUDY    54  52  94 NE14      30.47S
TWO HARBORS    CLOUDY    54  48  82 E7        30.46S
SILVER BAY     CLOUDY    52  52 100 NE5       30.46F
GRAND MARAIS     N/A     48  47  96 CALM      30.47F
G MARAIS ARPRT CLEAR     45  41  87 N5        30.49F
$$
MNZ029>031-032-039>041-046>048-054>057-064-300600-
   West Central Minnesota

CITY           SKY/WX    TMP DP  RH WIND       PRES   REMARKS
FERGUS FALLS   CLEAR     52  46  82 E7        30.42S
MORRIS         CLEAR     48  46  93 E7        30.38S
ALEXANDRIA     CLEAR     48  47  96 E6        30.42S
ELBOW LAKE     FAIR      51  47  89 SE8       30.40S
WADENA         CLEAR     46  45  93 E5        30.42S
GLENWOOD       CLEAR     46  45  93 NE5       30.41S
BENSON         CLEAR     48  45  87 SE5       30.39S
ORTONVILLE     CLEAR     50  45  81 E3        30.37F
MADISON        CLEAR     50  48  93 SE6       30.37F
WILLMAR        FAIR      46  45  93 E3        30.41S
$$
MNZ033>034-036-042>043-049>051-058-059-300600-
   Central Minnesota

CITY           SKY/WX    TMP DP  RH WIND       PRES   REMARKS
ST CLOUD       CLEAR     51  50  96 NE3       30.41S
SAUK CENTRE    FAIR      50  47  92 E8        30.41S
PAYNESVILLE    PTCLDY    45  45 100 CALM      30.41S
AITKIN         CLEAR     46  43  87 NE3       30.42F
PINE RIVER     CLEAR     45  45 100 CALM      30.46S
BRAINERD       CLEAR     48  46  93 E5        30.43S
STAPLES        CLEAR     46  45  93 CALM      30.42F
LONG PRAIRIE   FAIR      46  45  93 NE3       30.42S
LITTLE FALLS   CLEAR     50  45  81 E5        30.42S
LITCHFIELD     CLEAR     52  50  93 CALM      30.40S
BUFFALO        CLEAR     52  48  87 NE3       30.41S
MAPLE LAKE     CLEAR     48  48  97 CALM      30.41S
HUTCHINSON     CLEAR     47  46  97 CALM      30.40S
$$
MNZ037-044-045-052-053-300600-
   East Central Minnesota

CITY           SKY/WX    TMP DP  RH WIND       PRES   REMARKS
PRINCETON      CLEAR     52  48  87 NE3       30.41S
MORA           CLEAR     46  45  93 CALM      30.44S
CAMBRIDGE      CLEAR     54  48  82 CALM      30.40S
MOOSE LAKE     CLOUDY    52  50  93 E7        30.43S
HINCKLEY       FAIR      48  48 100 NE3       30.43S
CLOQUET        CLOUDY    52  48  87 E10       30.45S
MCGREGOR       CLOUDY    48  46  93 E6        30.45S
$$
MNZ071>073-080-081-089-090-097-098-300600-
   Southwest Minnesota

CITY           SKY/WX    TMP DP  RH WIND       PRES   REMARKS
MONTEVIDEO     CLEAR     48  46  93 S3        30.40S
GRANITE FALLS  CLEAR     53  49  85 E3        30.40S
CANBY          CLEAR     46  44  93 CALM      30.39F
MARSHALL       CLEAR     46  42  86 CALM      30.39S
REDWOOD FALLS  CLEAR     53  47  79 E6        30.38F
OLIVIA         CLEAR     52  46  82 CALM      30.38S
PIPESTONE      CLEAR     50  46  87 E5        30.37F
WINDOM         CLEAR     48  45  87 E6        30.38F
WORTHINGTON    CLEAR     48  46  93 E7        30.38F
JACKSON        CLEAR     46  43  87 CALM      30.39R
TRACY          CLEAR     52  48  85 S3        30.38F
$$
MNZ065>067-074>077-082>085-091>093-300600-
   South Central Minnesota

CITY           SKY/WX    TMP DP  RH WIND       PRES   REMARKS
MANKATO        CLEAR     57  51  80 NE8       30.38F
NEW ULM        CLEAR     55  48  76 E3        30.38S
ST JAMES       CLEAR     46  46 100 CALM      30.39S
FAIRMONT       CLEAR     48  45  89 CALM      30.38S
GLENCOE        CLEAR     49  49 100 CALM      30.38F
FARIBAULT      CLEAR     50  48  93 NE3       30.38F
OWATONNA       CLEAR     46  45  93 CALM      30.38S
WASECA         CLEAR     52  46  82 NE6       30.38F
ALBERT LEA     CLEAR     52  50  93 N3        30.37S
$$
MNZ078>079-086>088-094>096-300600-
   Southeast Minnesota

CITY           SKY/WX    TMP DP  RH WIND       PRES   REMARKS
ROCHESTER      CLEAR     55  50  83 NE8       30.37F
RED WING       CLEAR     54  52  94 CALM      30.38R
STANTON        CLEAR     47  46  95 CALM      30.37F FOG
DODGE CENTER   CLEAR     52  48  87 N6        30.37F
WINONA         CLEAR     54  52  94 CALM      30.37S
AUSTIN         CLEAR     50  46  87 CALM      30.36F
PRESTON        CLEAR     55  49  82 NE7       30.36F
$$
ABBREVIATIONS USED IN REMARKS
   TC - TEMPERATURES IN CELSIUS
  WCI - WIND CHILL INDEX
   HX - HEAT INDEX
  VSB - VISIBILITY
$$




USA.gov is the U.S. government's official web portal to all federal, state and local government web resources and services.